Weather History for Douglas, WY

Change the Weather History Date:

Thursday, April 4, 2013

  Actual Average Record
Temperature  
Mean Temperature 49 °F 41 °F  
Max Temperature 70 °F 55 °F 74 °F (2000)
Min Temperature 28 °F 27 °F 18 °F (2011)
Degree Days  
Heating Degree Days 16 24  
Month to date heating degree days 82 98  
Since 1 July heating degree days 6026 6416  
Cooling Degree Days 0 0  
Month to date cooling degree days 0 0  
Year to date cooling degree days 0 0  
Moisture  
Dew Point 28 °F    
Average Humidity 54    
Maximum Humidity 92    
Minimum Humidity 16    
Precipitation  
Precipitation 0.00 in 0.03 in 0.18 in (2009)
Month to date precipitation T 0.12  
Year to date precipitation 0.97 1.76  
Sea Level Pressure  
Sea Level Pressure 29.98 in    
Wind  
Wind Speed 4 mph (SW)    
Max Wind Speed 20 mph    
Max Gust Speed 24 mph    
Visibility 10 miles    
Events      
T = Trace of Precipitation, MM = Missing Value Source: NWS Daily Summary

Daily Weather History Graph

Daily Weather History Graph

Search for Another Location

Airport:

Trip Planner

Search our weather history database for the weather conditions in past years. The results will help you decide how hot, cold, wet, or windy it might be!

Date:

Astronomy

Apr. 04, 2013 Rise Set
Actual Time 6:37 AM MDT 7:31 PM MDT
Civil Twilight 6:09 AM MDT 8:00 PM MDT
Nautical Twilight 5:35 AM MDT 8:34 PM MDT
Astronomical Twilight 4:59 AM MDT 9:10 PM MDT
Moon 3:14 AM MDT (4/4) 1:45 PM MDT (4/4)
Length of Visible Light 13h 50m
Length of Day
12h 53m
Waning Crescent, 33% of the Moon is Illuminated
Apr 4
Waning Crescent
Apr 10
New
Apr 18
First Quarter
Apr 25
Full
May 2
Last Quarter

Hourly Weather History & Observations

Time (MDT) Temp. Windchill Dew Point Humidity Pressure Visibility Wind Dir Wind Speed Gust Speed Precip Events Conditions
12:53 AM 37.9 °F - 33.1 °F 83% 30.07 in 10.0 mi Calm Calm - N/A   Clear
1:53 AM 34.0 °F - 30.0 °F 85% 30.08 in 10.0 mi Calm Calm - N/A   Clear
2:53 AM 33.1 °F 30.0 °F 30.0 °F 89% 30.06 in 10.0 mi SSE 3.5 mph - N/A   Clear
3:53 AM 32.0 °F - 30.0 °F 92% 30.08 in 10.0 mi Calm Calm - N/A   Clear
4:53 AM 32.0 °F - 28.9 °F 88% 30.07 in 10.0 mi Calm Calm - N/A   Clear
5:53 AM 28.9 °F - 27.0 °F 92% 30.09 in 10.0 mi Calm Calm - N/A   Clear
6:53 AM 28.0 °F - 27.0 °F 96% 30.09 in 10.0 mi Calm Calm - N/A   Clear
7:53 AM 33.1 °F - 30.9 °F 92% 30.10 in 10.0 mi Calm Calm - N/A   Clear
8:53 AM 42.1 °F - 35.1 °F 76% 30.08 in 10.0 mi Calm Calm - N/A   Clear
9:53 AM 48.9 °F - 35.1 °F 59% 30.05 in 10.0 mi Calm Calm - N/A   Clear
10:53 AM 55.9 °F - 33.1 °F 42% 30.03 in 10.0 mi Calm Calm - N/A   Clear
11:53 AM 60.1 °F - 33.1 °F 36% 30.01 in 10.0 mi Variable 4.6 mph - N/A   Clear
12:53 PM 64.0 °F - 25.0 °F 23% 29.98 in 10.0 mi West 13.8 mph 19.6 mph N/A   Scattered Clouds
1:53 PM 64.9 °F - 26.1 °F 23% 29.96 in 10.0 mi Variable 6.9 mph 19.6 mph N/A   Mostly Cloudy
2:53 PM 68.0 °F - 23.0 °F 18% 29.93 in 10.0 mi West 16.1 mph 24.2 mph N/A   Scattered Clouds
3:53 PM 68.0 °F - 24.1 °F 19% 29.92 in 10.0 mi West 6.9 mph 17.3 mph N/A   Partly Cloudy
4:53 PM 69.1 °F - 21.0 °F 16% 29.89 in 10.0 mi WSW 13.8 mph 19.6 mph N/A   Clear
5:53 PM 66.9 °F - 19.0 °F 16% 29.90 in 10.0 mi WNW 10.4 mph - N/A   Clear
6:53 PM 63.0 °F - 21.0 °F 20% 29.90 in 10.0 mi Calm Calm - N/A   Partly Cloudy
7:53 PM 55.0 °F - 25.0 °F 31% 29.90 in 10.0 mi SE 4.6 mph - N/A   Mostly Cloudy
8:53 PM 54.0 °F - 25.0 °F 33% 29.88 in 10.0 mi SE 5.8 mph - N/A   Scattered Clouds
9:53 PM 50.0 °F - 28.0 °F 43% 29.86 in 10.0 mi SSE 3.5 mph - N/A   Clear
10:53 PM 52.0 °F - 28.0 °F 40% 29.83 in 10.0 mi Calm Calm - N/A   Scattered Clouds
11:53 PM 51.1 °F - 28.0 °F 41% 29.80 in 10.0 mi Variable 3.5 mph - N/A   Clear